| time (UTC) | temp F | wind direction | speed knots | gust knots | rain 1hr in | rain 24hr in | rain mn in | humidity % | barometer mb |
| 20260508041711 | 46 | 1 | 4.3 | 0.0 | 0.00 | 0.02 | 0.00 | 79 | 5171.2 |
| 20260508040700 | 46 | 12 | 3.5 | 0.0 | 0.00 | 0.02 | 0.00 | 5 | 5171.2 |
| 20260508035653 | 45 | 354 | 1.7 | 0.0 | 0.00 | 0.02 | 0.00 | 100 | 5171.2 |
| 20260508034649 | 45 | 347 | 2.6 | 0.0 | 0.00 | 0.02 | 0.00 | 3 | 5171.2 |
| 20260508033643 | 45 | 46 | 1.7 | 0.0 | 0.00 | 0.02 | 0.00 | 100 | 1641.2 |
| 20260508032637 | 46 | 7 | 2.6 | 0.0 | 0.00 | 0.01 | 0.00 | 2 | 1641.2 |
| 20260508031630 | 46 | 29 | 0.0 | 0.0 | 0.00 | 0.01 | 0.00 | 5 | 470.4 |
| 20260508030624 | 46 | 35 | 0.9 | 0.0 | 0.00 | 0.01 | 0.00 | 12 | 470.4 |
| 20260508025617 | 46 | 60 | 0.9 | 0.0 | 0.00 | 0.01 | 0.00 | 79 | 470.4 |
| 20260508024611 | 46 | 70 | 3.5 | 0.0 | 0.00 | 0.01 | 0.00 | 1 | 4096.2 |
| 20260508023606 | 46 | 64 | 1.7 | 0.0 | 0.00 | 0.00 | 0.00 | 3 | 4096.2 |
| 20260508022559 | 47 | 347 | 4.3 | 0.0 | 0.00 | 0.00 | 0.00 | 3 | 4096.2 |
| 20260508021553 | 47 | 322 | 5.2 | 0.0 | 0.00 | 0.00 | 0.00 | 25 | 4096.2 |
| 20260508020549 | 47 | 15 | 0.0 | 0.0 | 0.00 | 0.00 | 0.00 | 12 | 4096.2 |
| 20260508015542 | 47 | 40 | 0.0 | 0.0 | 0.00 | 0.00 | 0.00 | 12 | 4096.2 |
| 20260508014535 | 47 | 343 | 0.9 | 0.0 | 0.00 | 0.00 | 0.00 | 79 | 4096.2 |
| 20260508013530 | 47 | 352 | 1.7 | 0.0 | 0.00 | 0.00 | 0.00 | 100 | 4096.2 |
| 20260508012523 | 46 | 358 | 3.5 | 0.0 | 0.00 | 0.00 | 0.00 | 100 | 4352.0 |
| 20260508011517 | 47 | 337 | 2.6 | 0.0 | 0.00 | 0.00 | 0.00 | 3 | 4352.0 |
| 20260508010512 | 47 | 358 | 6.1 | 0.0 | 0.00 | 0.00 | 0.00 | 100 | 100.8 |
| 20260508005504 | 47 | 11 | 2.6 | 0.0 | 0.00 | 0.00 | 0.00 | 79 | 6246.5 |
| 20260508004458 | 47 | 337 | 3.5 | 0.0 | 0.00 | 0.00 | 0.00 | 51 | 6246.5 |
| 20260508003453 | 47 | 334 | 3.5 | 0.0 | 0.00 | 0.00 | 0.00 | 4 | 6246.5 |
| 20260508002447 | 47 | 338 | 3.5 | 0.0 | 0.00 | 0.00 | 0.00 | 12 | 6246.5 |
| 20260508001442 | 47 | 23 | 5.2 | 0.0 | 0.00 | 0.00 | 0.00 | 79 | 188.8 |
| 20260508000436 | 47 | 348 | 5.2 | 0.0 | 0.00 | 0.00 | 0.00 | 79 | 4352.0 |
| 20260507235429 | 47 | 336 | 7.8 | 0.0 | 0.00 | 4.09 | 0.00 | 2 | 97.6 |
| 20260507234423 | 47 | 47 | 3.5 | 0.0 | 0.00 | 0.00 | 0.00 | 3 | 19.2 |
| 20260507233418 | 47 | 341 | 1.7 | 0.0 | 0.00 | 0.00 | 0.00 | 51 | 19.2 |
| 20260507232411 | 47 | 302 | 5.2 | 0.0 | 0.00 | 0.00 | 0.00 | 37 | 19.2 |
| 20260507231405 | 47 | 39 | 3.5 | 0.0 | 0.00 | 0.00 | 0.00 | 6 | 19.2 |
| 20260507230359 | 47 | 60 | 0.0 | 0.0 | 0.00 | 0.00 | 0.00 | 3 | 47.5 |
| 20260507225352 | 47 | 47 | 2.6 | 0.0 | 0.00 | 0.00 | 0.00 | 51 | 47.5 |
| 20260507224347 | 47 | 16 | 2.6 | 0.0 | 0.00 | 0.00 | 0.00 | 51 | 1641.4 |
| 20260507223343 | 47 | 54 | 2.6 | 0.0 | 0.00 | 0.00 | 0.00 | 3 | 1641.4 |
| 20260507222337 | 48 | 338 | 2.6 | 0.0 | 0.00 | 0.00 | 0.00 | 68 | 5683.2 |
| 20260507221332 | 47 | 16 | 5.2 | 0.0 | 0.00 | 0.00 | 0.00 | 39 | 4096.7 |
| 20260507220325 | 48 | 0 | 2.6 | 0.0 | 0.00 | 0.00 | 0.00 | 25 | 4352.0 |
| 20260507215316 | 48 | 338 | 5.2 | 0.0 | 0.00 | 0.06 | 0.00 | 54 | 4352.0 |
| 20260507214311 | 48 | 344 | 5.2 | 0.0 | 0.00 | 0.06 | 0.00 | 12 | 9.6 |
| 20260507213306 | 48 | 213 | 2.6 | 0.0 | 0.00 | 0.06 | 0.00 | 8 | 2.2 |
| 20260507212259 | 48 | 358 | 5.2 | 0.0 | 0.00 | 0.06 | 0.00 | 100 | 777.6 |
| 20260507211253 | 48 | 78 | 4.3 | 0.0 | 0.00 | 0.05 | 0.00 | 52 | 777.6 |
| 20260507210247 | 49 | 18 | 3.5 | 0.0 | 0.00 | 0.05 | 0.00 | 63 | 22.4 |
| 20260507205241 | 49 | 320 | 2.6 | 0.0 | 0.00 | 0.05 | 0.00 | 37 | 22.4 |
| 20260507204234 | 49 | 47 | 2.6 | 0.0 | 0.00 | 0.04 | 0.00 | 1 | 665.7 |
| 20260507203231 | 49 | 61 | 2.6 | 0.0 | 0.00 | 0.04 | 0.00 | 3 | 4096.8 |
| 20260507202223 | 49 | 9 | 1.7 | 0.0 | 0.00 | 0.04 | 0.00 | 51 | 4096.8 |
| 20260507200213 | 50 | 357 | 4.3 | 0.0 | 0.00 | 0.04 | 0.00 | 1 | 6067.3 |
| 20260507195205 | 50 | 334 | 7.8 | 0.0 | 0.00 | 0.04 | 0.00 | 4 | 155.8 |
| 20260507194201 | 50 | 7 | 6.1 | 0.0 | 0.00 | 0.04 | 0.00 | 32 | 155.8 |
| 20260507193156 | 50 | 47 | 1.7 | 0.0 | 0.00 | 0.04 | 0.00 | 13 | 155.8 |
| 20260507192148 | 51 | 358 | 2.6 | 0.0 | 0.00 | 0.04 | 0.00 | 12 | 4099.1 |
| 20260507191143 | 50 | 355 | 4.3 | 0.0 | 0.00 | 0.04 | 0.00 | 25 | 4099.1 |
| 20260507190139 | 50 | 358 | 3.5 | 0.0 | 0.00 | 0.04 | 0.00 | 31 | 4352.0 |
| 20260507185132 | 50 | 341 | 1.7 | 0.0 | 0.00 | 0.04 | 0.00 | 13 | 1561.6 |
| 20260507184127 | 51 | 7 | 2.6 | 0.0 | 0.00 | 0.04 | 0.00 | 13 | 1561.6 |
| 20260507183121 | 52 | 261 | 0.0 | 0.0 | 0.00 | 0.04 | 0.00 | 13 | 5.1 |
| 20260507182115 | 53 | 14 | 0.0 | 0.0 | 0.00 | 0.03 | 0.00 | 54 | 53.7 |
| 20260507181111 | 53 | 80 | 0.0 | 0.0 | 0.00 | 0.03 | 0.00 | 12 | 8.1 |
| 20260507180106 | 54 | 250 | 0.0 | 0.0 | 0.00 | 0.01 | 0.00 | 1 | 8.1 |
| 20260507174059 | 55 | 295 | 2.6 | 0.0 | 0.00 | 0.00 | 0.00 | 3 | 8.1 |
| 20260507173056 | 55 | 286 | 2.6 | 0.0 | 0.00 | 0.00 | 0.00 | 5 | 2585.6 |
| 20260507172047 | 56 | 341 | 4.3 | 0.0 | 0.00 | 0.00 | 0.00 | 1 | 2585.6 |
| 20260507171042 | 57 | 333 | 3.5 | 0.0 | 0.00 | 0.00 | 0.00 | 12 | 4352.0 |
| 20260507170040 | 58 | 288 | 2.6 | 0.0 | 0.00 | 0.00 | 0.00 | 1 | 4352.0 |
| 20260507165035 | 60 | 329 | 0.9 | 0.0 | 0.00 | 0.00 | 0.00 | 12 | 979.2 |
| 20260507164027 | 60 | 11 | 0.0 | 0.0 | 0.00 | 0.00 | 0.00 | 12 | |
| 20260507163025 | 62 | 85 | 0.0 | 0.0 | 0.00 | 0.00 | 0.00 | 12 | 11.5 |
| 20260507162019 | 63 | 161 | 0.0 | 0.0 | 0.00 | 0.00 | 0.00 | 54 | 1019.2 |
| 20260507161013 | 64 | 130 | 0.0 | 0.0 | 0.00 | 0.00 | 0.00 | 3 | 5738.5 |
| 20260507160009 | 65 | 163 | 0.0 | 0.0 | 0.00 | 0.00 | 0.00 | 88 | 5738.5 |
| 20260507155003 | 66 | 226 | 0.0 | 0.0 | 0.00 | 0.00 | 0.00 | 2 | 5738.5 |
| 20260507153959 | 66 | 126 | 1.7 | 0.0 | 0.00 | 0.00 | 0.00 | 4 | 5738.5 |
| 20260507152956 | 66 | 188 | 2.6 | 0.0 | 0.00 | 0.00 | 0.00 | 1 | 5738.5 |
| 20260507151947 | 66 | 12 | 0.9 | 0.0 | 0.00 | 0.00 | 0.00 | 2 | 5738.5 |
| 20260507151351 | 65 | 57 | 0.0 | 0.0 | 0.00 | 0.00 | 0.00 | 12 | 5738.5 |
| 20260507150943 | 65 | 57 | 0.0 | 0.0 | 0.00 | 0.00 | 0.00 | 12 | 5738.5 |
| 20260507145937 | 65 | 161 | 1.7 | 0.0 | 0.00 | 0.00 | 0.00 | 100 | 4352.0 |
| 20260507144931 | 66 | 320 | 0.0 | 0.0 | 0.00 | 0.00 | 0.00 | 3 | 4352.0 |
| 20260507143926 | 66 | 85 | 1.7 | 0.0 | 0.00 | 0.00 | 0.00 | 62 | 4352.0 |
| 20260507142922 | 64 | 171 | 0.0 | 0.0 | 0.00 | 0.00 | 0.00 | 1 | 4352.0 |
| 20260507141915 | 65 | 205 | 1.7 | 0.0 | 0.00 | 0.00 | 0.00 | 53 | 4352.0 |
| 20260507135902 | 67 | 187 | 0.0 | 0.0 | 0.00 | 0.00 | 0.00 | 11 | 8.1 |
| 20260507134853 | 66 | 156 | 0.9 | 0.0 | 0.00 | 0.00 | 0.00 | 53 | 8.1 |
| 20260507133848 | 66 | 167 | 0.9 | 0.0 | 0.00 | 0.00 | 0.00 | 1 | 8.1 |
| 20260507132839 | 67 | 174 | 0.9 | 0.0 | 0.00 | 0.00 | 0.00 | 1 | 3840.0 |
| 20260507131833 | 68 | 11 | 0.0 | 0.0 | 0.00 | 0.00 | 0.00 | 1 | 3840.0 |
| 20260507130826 | 66 | 175 | 0.9 | 0.0 | 0.00 | 0.00 | 0.00 | 11 | 3840.0 |
| 20260507125821 | 66 | 208 | 2.6 | 0.0 | 0.00 | 0.00 | 0.00 | 55 | 361.6 |
| 20260507124816 | 66 | 168 | 0.0 | 0.0 | 0.00 | 0.00 | 0.00 | 1 | 361.6 |
| 20260507123813 | 66 | 317 | 0.0 | 0.0 | 0.00 | 0.00 | 0.00 | 3 | 3277.3 |
| 20260507122808 | 68 | 146 | 0.0 | 0.0 | 0.00 | 0.00 | 0.00 | 1 | 3690.6 |
| 20260507121804 | 67 | 108 | 0.0 | 0.0 | 0.00 | 0.00 | 0.00 | 85 | 3690.6 |
| 20260507120759 | 67 | 170 | 0.0 | 0.0 | 0.00 | 0.00 | 0.00 | 5 | 4.3 |
| 20260507115753 | 69 | 90 | 0.9 | 0.0 | 0.00 | 0.00 | 0.00 | 100 | 3609.8 |
| 20260507114745 | 68 | 106 | 0.9 | 0.0 | 0.00 | 0.00 | 0.00 | 3 | 3609.8 |
| 20260507113740 | 69 | 80 | 0.0 | 0.0 | 0.00 | 0.00 | 0.00 | 10 | 870.4 |
| 20260507112734 | 69 | 133 | 1.7 | 0.0 | 0.00 | 0.00 | 0.00 | 53 | 204.8 |
| 20260507111731 | 68 | 180 | 0.0 | 0.0 | 0.00 | 0.00 | 0.00 | 53 | 8.1 |
| 20260507110726 | 68 | 184 | 0.0 | 0.0 | 0.00 | 0.00 | 0.00 | 100 | 2048.5 |
| 20260507105719 | 67 | 102 | 0.0 | 0.0 | 0.00 | 0.00 | 0.00 | 12 | 2052.2 |
| 20260507104715 | 66 | 244 | 0.0 | 0.0 | 0.00 | 0.00 | 0.00 | 53 | 1096.0 |
| 20260507103710 | 69 | 226 | 0.0 | 0.0 | 0.00 | 0.00 | 0.00 | 79 | 1096.0 |
| 20260507102704 | 69 | 254 | 0.9 | 0.0 | 0.00 | 0.00 | 0.00 | 12 | 1096.0 |
| 20260507101700 | 67 | 74 | 0.0 | 0.0 | 0.00 | 0.00 | 0.00 | 5 | |
| 20260507100655 | 67 | 149 | 0.0 | 0.0 | 0.00 | 0.00 | 0.00 | 53 | |
| 20260507095648 | 68 | 172 | 1.7 | 0.0 | 0.00 | 0.00 | 0.00 | 71 | |
| 20260507094641 | 67 | 258 | 0.0 | 0.0 | 0.00 | 0.00 | 0.00 | 1 | 460.8 |
| 20260507093637 | 68 | 178 | 0.9 | 0.0 | 0.00 | 0.00 | 0.00 | 51 | 460.8 |
| 20260507092631 | 68 | 226 | 0.9 | 0.0 | 0.00 | 0.00 | 0.00 | 3 | 4509.9 |
| 20260507091622 | 70 | 150 | 0.0 | 0.0 | 0.00 | 0.00 | 0.00 | 12 | |
| 20260507090616 | 69 | 161 | 2.6 | 0.0 | 0.00 | 0.00 | 0.00 | 53 | |
| 20260507085610 | 68 | 165 | 0.0 | 0.0 | 0.00 | 0.00 | 0.00 | 100 | |
| 20260507084604 | 67 | 343 | 0.9 | 0.0 | 0.00 | 0.00 | 0.00 | 8 | |
| 20260507083600 | 67 | 188 | 0.9 | 0.0 | 0.00 | 0.00 | 0.00 | 100 | |
| 20260507082553 | 65 | 9 | 0.0 | 0.0 | 0.00 | 0.00 | 0.00 | 12 | 4915.7 |
| 20260507081550 | 64 | 154 | 0.0 | 0.0 | 0.00 | 0.00 | 0.00 | 25 | 4915.7 |
| 20260507080546 | 65 | 137 | 0.0 | 0.0 | 0.00 | 0.00 | 0.00 | 9 | 4915.7 |
| 20260507075539 | 63 | 205 | 0.0 | 0.0 | 0.00 | 0.00 | 0.00 | 15 | 4915.7 |
| 20260507074533 | 66 | 194 | 0.0 | 0.0 | 0.00 | 0.00 | 0.00 | 58 | 121.6 |
| 20260507073529 | 66 | 168 | 0.0 | 0.0 | 0.00 | 0.00 | 0.00 | 57 | 121.6 |
| 20260507072524 | 67 | 178 | 0.0 | 0.0 | 0.00 | 0.00 | 0.00 | 79 | 4352.0 |
| 20260507071514 | 66 | 170 | 0.0 | 0.0 | 0.00 | 0.00 | 0.00 | 5 | 68.2 |
| 20260507070505 | 65 | 188 | 0.0 | 0.0 | 0.00 | 0.00 | 0.00 | 12 | 17.0 |
| 20260507065451 | 62 | 203 | 0.0 | 0.0 | 0.00 | 0.00 | 0.00 | 2 | 8.1 |
| 20260507064447 | 61 | 174 | 0.0 | 0.0 | 0.00 | 0.00 | 0.00 | 100 | 8.1 |
| 20260507063442 | 60 | 164 | 0.0 | 0.0 | 0.00 | 0.00 | 0.00 | 1 | 3703.4 |
| 20260507062430 | 59 | 348 | 0.0 | 0.0 | 0.00 | 0.00 | 0.00 | 38 | 2461.3 |
| 20260507061422 | 58 | 172 | 0.0 | 0.0 | 0.00 | 0.00 | 0.00 | 1 | |
| 20260507060410 | 56 | 174 | 0.0 | 0.0 | 0.00 | 0.00 | 0.00 | 53 | 5.4 |
| 20260507055358 | 56 | 208 | 0.0 | 0.0 | 0.00 | 0.00 | 0.00 | 12 | 5.4 |
| 20260507054350 | 55 | 223 | 0.9 | 0.0 | 0.00 | 0.00 | 0.00 | 3 | 5.4 |
| 20260507053327 | 55 | 158 | 0.0 | 0.0 | 0.00 | 0.00 | 0.00 | 8 | 5.4 |
| 20260507052308 | 55 | 203 | 0.0 | 0.0 | 0.00 | 0.00 | 0.00 | 5 | 4352.0 |
| 20260507051258 | 54 | 175 | 0.0 | 0.0 | 0.00 | 0.00 | 0.00 | 53 | 200.0 |
| 20260507050259 | 54 | 175 | 0.0 | 0.0 | 0.00 | 0.00 | 0.00 | 12 | 12.6 |
| 20260507045247 | 54 | 168 | 0.0 | 0.0 | 0.00 | 0.00 | 0.00 | 100 | 313.6 |
| 20260507044242 | 54 | 232 | 0.0 | 0.0 | 0.00 | 0.00 | 0.00 | 23 | 313.6 |